Regional Weather Roundup
Issued by NWS Grand Forks, ND

Home | Current Version | Previous Version | Graphics & Text | Print | Product List | Glossary On
Versions: 1 2 3 4 5 6 7 8 9 10 11 12 13 14 15 16 17 18 19 20 21 22 23 24 25 26 27 28 29 30 31 32 33 34 35 36 37 38 39 40 41 42 43 44 45 46 47 48 49 50
000
ASUS43 KFGF 310910
RWRFGF
PRAIRIE TO PINES  WEATHER ROUNDUP
NATIONAL WEATHER SERVICE EASTERN NORTH DAKOTA/GRAND FORKS ND
400 AM CDT WED AUG 31 2016

 **SATELLITE DATA USED TO AUGMENT SKY COVER AT AUTOMATED STATIONS**
 *****  WEATHER ACROSS EASTERN NORTH DAKOTA  *****

CITY           SKY/WX    TMP DP  RH WIND       PRES   REMARKS
GRAND FORKS    CLEAR     52  48  86 NW5       30.22F
GRAND FRKS AFB PTCLDY    53  49  86 N3        30.24S
GRAND FRKS NWS   N/A     54 N/A N/A N1          N/A
DEVILS LAKE    CLEAR     57  47  69 E6        30.25S
FARGO          CLEAR     54  51  90 CALM      30.22R
WAHPETON ARPT  SUNNY     55  52  88 E3        30.22R
$$

 ***** WEATHER ACROSS CENTRAL AND WESTERN NORTH DAKOTA  *****

CITY           SKY/WX    TMP DP  RH WIND       PRES   REMARKS
BISMARCK       MOCLDY    62  54  74 E9        30.18F
MINOT          PTCLDY    60  53  77 E6        30.19S
JAMESTOWN      CLOUDY    57  55  93 E6        30.22R
MINOT AFB      PTCLDY    57  51  80 E7        30.19S
GARRISON         N/A     64  57  78 E8        30.18S
WILLISTON      PTCLDY    68  53  58 SE10      30.11F
DICKINSON      CLEAR     57  54  89 E9        30.12F
HETTINGER      CLEAR     63  56  78 SE6       30.15F
$$

 *****  OTHER AIRPORT OBSERVATIONS IN OUR AREA  *****

CITY           SKY/WX    TMP DP  RH WIND       PRES   REMARKS
WALHALLA       NOT AVBL
GRAFTON AIRPOR FAIR      54  48  82 N7        30.26S
VALLEY CITY AR FAIR      57  57 100 NE3       30.25S
CANDO          NOT AVBL
CAVALIER APRT  FAIR      54  48  82 N3        30.26S
GWINNER        FAIR      55  54  94 CALM      30.23R
ROLLA          FAIR      48  46  93 N3        30.28S
 ***** THE ABOVE OBSERVATIONS ARE NON NWS ARE NOT QUALITY
       CONTROLLED AND MAY MIS-REPORT RAIN FOR SNOW...
$$

  *****  WEATHER ACROSS NORTHERN MINNESOTA  *****

CITY           SKY/WX    TMP DP  RH WIND       PRES   REMARKS
FLAG ISLAND    CLEAR     61  54  77 NW3       30.22S
WARROAD        CLEAR     52  48  87 NW3       30.25R
ROSEAU         PTCLDY    50  45  81 CALM      30.25R
HALLOCK        CLEAR     50  46  87 N5        30.25R
THF RVR FALLS  CLEAR     56  50  80 NE7       30.24F
BAUDETTE       CLEAR     49  47  93 W3        30.23R
WASKISH        PTCLDY    46  45  93 CALM      30.23S
CROOKSTON      PTCLDY    54  52  94 NE3       30.23S
GREENBUSH NDAW   N/A     46  46 100 W2          N/A
$$
  *****  WEATHER ACROSS CENTRAL AND WEST MINNESOTA  *****

CITY           SKY/WX    TMP DP  RH WIND       PRES   REMARKS
FOSSTON        CLEAR     48  46  93 CALM      30.24S
BEMIDJI        CLEAR     47  46  98 CALM      30.23S
PARK RAPIDS    NOT AVBL
ELBOW LAKE     FAIR      60  58  96 CALM      30.22S
WADENA         NOT AVBL
DETROIT LAKES  CLEAR     57  54  88 CALM      30.24S
MOORHEAD       CLEAR     54  52  94 CALM      30.23S
FERGUS FALLS   CLEAR     59  54  82 E5        30.23F
MORRIS MN      CLEAR     55  54  94 E5        30.21S
STAPLES        CLEAR     54  52  94 CALM      30.23R
$$
  *****  WEATHER ELSEWHERE ACROSS MINNESOTA  *****

CITY           SKY/WX    TMP DP  RH WIND       PRES   REMARKS
DULUTH         CLEAR     53  49  86 N6        30.19S
INTRNTL FALLS  PTCLDY    44  42  93 CALM      30.21R
ELY            MOCLDY    46  45  93 CALM      30.20R
CLOQUET        CLEAR     48  46  93 NW6       30.19S
WHEATON        NOT AVBL
BRAINERD       CLEAR     51  51 100 CALM      30.22S
HIBBING        PTCLDY    42  42 100 CALM      30.21R FOG
ALEXANDRIA     CLEAR     59  54  83 E3        30.24R
SAINT CLOUD    CLEAR     53  53 100 CALM      30.21R
MINNEAPOLIS    CLEAR     61  54  77 CALM      30.19S
$$

  *****  WEATHER ACROSS SOUTH DAKOTA  *****

CITY           SKY/WX    TMP DP  RH WIND       PRES   REMARKS
SIOUX FALLS    CLEAR     58  57  97 CALM      30.22S
BROOKINGS      CLEAR     57  55  93 CALM      30.22S
WATERTOWN      PTCLDY    59  55  87 CALM      30.22F
HURON          MOCLDY    67  60  78 SE7       30.19F
SISSETON         N/A     56  52  86 SW5       30.21S
ABERDEEN       MOCLDY    59  56  89 NE5       30.21R
MITCHELL       CLOUDY    65  63  93 CALM      30.20S
PIERRE         CLEAR     65  64  97 SE6       30.15F
MOBRIDGE       CLEAR     69  60  73 SE13      30.14S
RAPID CITY     CLEAR     61  54  77 SE3       30.18S
$$

  *****  SOME WEATHER IN NEARBY STATES *****

CITY           SKY/WX    TMP DP  RH WIND       PRES   REMARKS
GLASGOW MT     CLEAR     67  53  61 E15       29.99F
GREAT FALLS MT PTCLDY    66  48  52 E5        29.97F
CHEYENNE WY    CLEAR     53  51  93 W6        30.34F
SCOTTSBLUFF NE CLEAR     58  56  93 E6        30.25F
OMAHA NE       CLOUDY    71  67  87 NW3       30.16S
DES MOINES IA  CLOUDY    69  62  78 NE7       30.14S
DAVENPORT IA   CLOUDY    69  67  93 N6        30.08F
CHICAGO IL     MOCLDY    72  67  84 N7        30.03F
EAU CLAIRE WI  CLEAR     53  53 100 CALM      30.17S
LA CROSSE WI   CLEAR     60  59  96 N8        30.16R
$$

  *****  SOME NATIONAL WEATHER *****

CITY           SKY/WX    TMP DP  RH WIND       PRES   REMARKS
LA GUARDIA NY  PTCLDY    77  71  82 SW10      30.00F
RALEIGH NC     PTCLDY    72  69  90 CALM      30.02F
ATLANTA GA     CLEAR     75  69  81 NE5       30.02F
NEW ORLEANS LA CLEAR     84  77  79 N5        29.88F HX  94
OKLAHOMA CITY  MOCLDY    76  68  76 NE6       30.07S
ALBUQUERQUE NM CLOUDY    66  56  70 E16       30.29F
SALT LAKE CITY PTCLDY    80  32  17 SE12      30.03R
LOS ANGELES CA PTCLDY    70  66  87 E5        29.83F
BOISE ID       CLOUDY    66  44  45 SE8       29.89F
SEATTLE WA     PTCLDY    59  52  77 E6        29.98F
$$

*** WEATHER ACROSS MANITOBA...SASKATCHEWAN AND ONTARIO ***
                ***ONTARIO***

CITY           SKY/WX    TMP DP  RH WIND       PRES   REMARKS
GERALDTON      NOT AVBL
THUNDER BAY    CLOUDY    55  54  94 SW3       30.13S
SIOUX LOOKOUT  CLOUDY    57  55  94 N5        30.18R
TORONTO        MOCLDY    73  64  73 W7        29.94F
BIG TROUT LK   LGT RAIN  48  48 100 NW9G23    30.14S FOG
PICKLE LAKE    NOT AVBL
DRYDEN         MOCLDY    52  50  93 W8        30.20R
KENORA         CLEAR     55  52  88 NW5       30.23S
$$
                *** MANITOBA***

CITY           SKY/WX    TMP DP  RH WIND       PRES   REMARKS
BRANDON        CLEAR     52  48  87 NE9       30.28S
DAUPHIN        CLEAR     45  43  93 W6        30.30S
ISLAND LAKE    CLOUDY    52  48  87 N10G20    30.30R
PILOT MOUND      N/A     52  46  82 NE7         N/A
THE PAS        CLOUDY    57  52  82 E3        30.34R
THOMPSON       NOT AVBL
WINNIPEG       CLEAR     48  48 100 N2        30.28R
LYNN LAKE      FOG       45  45 100 MISG      30.34S VSB 3/4
CHURCHILL      CLEAR     45  43  93 N9        30.35R
GILLAM         CLEAR     46  43  87 N15G22    30.33R
$$
                ***SASKATCHEWAN***

CITY           SKY/WX    TMP DP  RH WIND       PRES   REMARKS
ESTEVAN        PTCLDY    57  50  77 E13       30.18R
KINDERSLEY     PTCLDY    55  50  82 E16       30.07S
LLOYDMINSTER   PTCLDY    54  45  71 E14       30.11F
PRINCE ALBERT  CLEAR     52  50  93 E10       30.26S
REGINA         CLEAR     59  50  72 E15G21    30.16F
YORKTON        CLEAR     46  46 100 N2        30.27F
N. BATTLEFORD  NOT AVBL
LA RONGE       CLEAR     55  52  88 SE7       30.30S
SASKATOON      CLEAR     55  46  71 E9        30.18F
SWIFT CURRENT  CLEAR     57  50  77 E10       30.07F
$$
NOTE: THESE ARE AUTOMATED STATIONS WITH LIMITED QUALITY CONTROL
      "FAIR" INDICATES FEW OR NO CLOUDS BELOW 12,000 FEET WITH NO
      SIGNIFICANT WEATHER AND/OR OBSTRUCTIONS TO VISIBILITY.
      SKY/WX - SKY CONDITION AND SIGNIFICANT WEATHER.
      TMP - AIR TEMPERATURE.    DP   - DEWPOINT TEMPERATURE.
      RH  - RELATIVE HUMIDITY.  PRES - PRESSURE.
      HX  - HEAT INDEX.         WCI  - WIND CHILL INDEX.
$




USA.gov is the U.S. government's official web portal to all federal, state and local government web resources and services.